EW3359 Weather Reports


Display with metric or nautical units.
time (UTC)temp
F
wind
direction
speed
MPH
gust
MPH
rain 1hr
in
rain 24hr
in
rain mn
in
humidity
%
barometer
mb
20260831003006 66 207 0.0 0.0 0.01 0.02 0.02 80 1014.7
20260831001507 66 240 1.0 6.0 0.01 0.01 0.01 81 1015.0
20260831000109 67 336 0.0 5.0 0.01 0.01 0.01 78 1014.0
20260830234611 67 5 0.0 4.0 0.01 0.01 0.01 75 1013.8
20260830233054 70 196 2.0 6.0 0.01 0.01 0.01 68 1014.0
20260830231554 70 22 0.0 0.0 0.00 0.00 0.00 62 1012.8
20260830230053 70 22 0.0 0.0 0.00 0.00 0.00 62 1012.4
20260830224550 70 322 0.0 2.0 0.00 0.00 0.00 63 1012.4
20260830223047 70 337 0.0 0.0 0.00 0.00 0.00 64 1012.6
20260830221544 71 337 0.0 0.0 0.00 0.00 0.00 63 1012.9
20260830220042 71 337 0.0 0.0 0.00 0.00 0.00 64 1012.7
20260830214541 71 337 0.0 0.0 0.00 0.00 0.00 62 1012.3
20260830213053 72 337 0.0 0.0 0.00 0.00 0.00 60 1012.1
20260830211541 71 338 0.0 0.0 0.00 0.00 0.00 61 1012.2
20260830210041 72 338 0.0 0.0 0.00 0.00 0.00 60 1012.1
20260830204542 72 338 0.0 0.0 0.00 0.00 0.00 57 1012.1
20260830203039 73 338 0.0 0.0 0.00 0.00 0.00 57 1012.1
20260830201539 72 336 0.0 2.0 0.00 0.00 0.00 58 1012.0
20260830200038 73 328 0.0 0.0 0.00 0.00 0.00 58 1012.0
20260830194538 73 333 0.0 0.0 0.00 0.00 0.00 58 1012.0
20260830193038 74 333 0.0 0.0 0.00 0.00 0.00 55 1011.9
20260830191537 75 333 0.0 0.0 0.00 0.00 0.00 53 1011.6
20260830190037 75 288 0.0 2.0 0.00 0.00 0.00 53 1011.3
20260830184541 75 236 0.0 2.0 0.00 0.00 0.00 54 1011.1
20260830183036 76 227 0.0 7.0 0.00 0.00 0.00 51 1010.7
20260830181539 77 195 0.0 7.0 0.00 0.00 0.00 50 1010.5
20260830180035 77 194 0.0 4.0 0.00 0.00 0.00 49 1010.4
20260830174534 78 198 1.0 5.0 0.00 0.00 0.00 48 1010.3
20260830173033 79 257 0.0 5.0 0.00 0.00 0.00 47 1010.3
20260830171533 80 183 1.0 5.0 0.00 0.00 0.00 47 1010.1
20260830170033 80 184 2.0 7.0 0.00 0.00 0.00 46 1010.0
20260830164533 81 182 0.0 3.0 0.00 0.00 0.00 45 1009.8
20260830163031 82 226 1.0 8.0 0.00 0.00 0.00 43 1009.8
20260830161530 84 204 0.0 6.0 0.00 0.00 0.00 41 1009.8
20260830160030 84 227 0.0 7.0 0.00 0.00 0.00 41 1009.8
20260830154531 82 184 0.0 6.0 0.00 0.00 0.00 46 1009.8
20260830153130 82 187 2.0 10.0 0.00 0.00 0.00 45 1009.9
20260830151528 83 188 3.0 8.0 0.00 0.00 0.00 43 1010.0
20260830150049 84 181 4.0 9.0 0.00 0.00 0.00 41 1010.0
20260830144529 84 181 2.0 7.0 0.00 0.00 0.00 42 1010.0
20260830143025 84 187 2.0 8.0 0.00 0.00 0.00 42 1010.1
20260830141524 84 181 0.0 9.0 0.00 0.00 0.00 42 1010.3
20260830140020 84 169 0.0 0.0 0.00 0.00 0.00 42 1010.6
20260830134532 84 177 0.0 0.0 0.00 0.00 0.00 41 1010.8
20260830133014 83 213 0.0 0.0 0.00 0.00 0.00 42 1011.0
20260830131514 83 184 0.0 0.0 0.00 0.00 0.00 40 1011.2
20260830130010 83 200 0.0 0.0 0.00 0.00 0.00 43 1011.3
20260830124507 82 203 0.0 0.0 0.00 0.00 0.00 42 1011.5
20260830123006 82 190 0.0 0.0 0.00 0.00 0.00 38 1011.8
20260830121501 82 232 0.0 0.0 0.00 0.00 0.00 40 1011.9
20260830120059 81 222 0.0 0.0 0.00 0.00 0.00 42 1012.2
20260830114608 81 180 0.0 0.0 0.00 0.00 0.00 43 1012.4
20260830113057 80 192 0.0 0.0 0.00 0.00 0.00 44 1012.6
20260830111552 80 211 0.0 0.0 0.00 0.00 0.00 47 1012.7
20260830110048 79 189 0.0 0.0 0.00 0.00 0.00 46 1013.0
20260830104545 77 192 0.0 0.0 0.00 0.00 0.00 45 1013.0
20260830103041 77 194 0.0 0.0 0.00 0.00 0.00 48 1013.3
20260830101545 76 196 0.0 0.0 0.00 0.00 0.00 51 1013.4
20260830100036 75 196 0.0 0.0 0.00 0.00 0.00 50 1013.6
20260830094531 74 182 0.0 0.0 0.00 0.00 0.00 54 1014.1
20260830093029 73 152 0.0 0.0 0.00 0.00 0.00 52 1014.3
20260830091524 73 176 0.0 0.0 0.00 0.00 0.00 55 1014.6
20260830090046 71 165 0.0 0.0 0.00 0.00 0.00 58 1014.8
20260830084525 70 159 0.0 0.0 0.00 0.00 0.00 59 1014.9
20260830083033 69 165 0.0 0.0 0.00 0.00 0.00 60 1015.0
20260830081508 69 171 0.0 0.0 0.00 0.00 0.00 63 1015.1
20260830080004 68 187 0.0 0.0 0.00 0.00 0.00 67 1015.2
20260830074500 67 192 0.0 0.0 0.00 0.00 0.00 69 1015.3
20260830073057 66 213 0.0 0.0 0.00 0.00 0.00 71 1015.5
20260830071558 66 215 0.0 0.0 0.00 0.00 0.00 70 1015.6
20260830070050 63 303 0.0 0.0 0.00 0.00 0.00 74 1015.7
20260830064544 62 317 0.0 0.0 0.00 0.00 0.00 76 1015.8
20260830063040 62 323 0.0 0.0 0.00 0.00 0.00 76 1015.8
20260830061536 62 328 0.0 0.0 0.00 0.00 0.00 75 1015.9
20260830060032 60 327 0.0 0.0 0.00 0.00 0.00 78 1015.9
20260830054531 59 326 0.0 0.0 0.00 0.00 0.00 81 1016.0
20260830053024 58 326 0.0 0.0 0.00 0.00 0.00 83 1015.9
20260830051524 57 326 0.0 0.0 0.00 0.00 0.00 83 1015.9
20260830050021 57 326 0.0 0.0 0.00 0.00 0.00 82 1016.0
20260830044527 57 326 0.0 0.0 0.00 0.00 0.00 82 1015.9
20260830043021 59 326 0.0 0.0 0.00 0.00 0.00 80 1015.8
20260830041519 58 326 0.0 0.0 0.00 0.00 0.00 82 1015.7
20260830040015 58 326 0.0 0.0 0.00 0.00 0.00 80 1015.7
20260830034512 59 326 0.0 0.0 0.00 0.00 0.00 79 1015.7
20260830033011 59 326 0.0 0.0 0.00 0.00 0.00 77 1015.6
20260830031510 60 325 0.0 0.0 0.00 0.00 0.00 75 1015.7
20260830030009 60 325 0.0 0.0 0.00 0.00 0.00 77 1015.7
20260830024509 60 325 0.0 0.0 0.00 0.00 0.00 76 1015.6
20260830023007 60 325 0.0 0.0 0.00 0.00 0.00 75 1015.7
20260830021508 60 324 0.0 0.0 0.00 0.00 0.00 77 1015.8
20260830020007 60 324 0.0 0.0 0.00 0.00 0.00 77 1015.8
20260830014506 61 324 0.0 0.0 0.00 0.00 0.00 76 1015.9
20260830013003 61 323 0.0 0.0 0.00 0.00 0.00 74 1015.8
20260830011503 62 324 0.0 0.0 0.00 0.00 0.00 74 1015.8
20260830010000 62 325 0.0 0.0 0.00 0.00 0.00 74 1015.7
20260830004500 62 325 0.0 0.0 0.00 0.00 0.00 74 1015.7